Dean International
Flight School

Career Spotlight

Mika

Mika

Congratulations to Mika from Khazakstan. She recently sent us this photo of her flying an Airbus airliner.

More...
Mika's Success Story
close

Congratulations to Mika from Khazakstan. She recently sent us this photo of her flying an Airbus airliner.

Mario

Mario

My dreams could not have been realized if I wouldn't have been part of the Dean International family.

More...
Mario's Success Story
close

"My dreams could not have been realized if I wouldn't have been part of the Dean International family. Thank you Robert, thanks to all my co-workers, and thanks to all of my students!"

Fernando

Fernando

I am now working as a First Officer at TACA and am enjoying every moment of it.

More...
Fernando's Success Story
close

"Will never forget my time of flight training at Dean International. I am now working as a First Officer at TACA and am enjoying every moment of it."

Alvaro

Alvaro

Because of the flight time I was able to built while instructing, I got the experience needed to apply to an airline in Colombia.

More...
Alvaro's Success Story
close

Dean alumnus Alvaro Londoño currently flies with Tampa Cargo. He says of his experience at Dean: "I want to take this opportunity to thank you for giving me the chance to build my experience and expand my knowledge in Dean International. Because of the flight time I was able to built flight instructing, I got the experience needed to apply to an airline in Colombia."

Ralph

Ralph

Every Aruban student of Dean International has made it into Tiara Air Aruba, that is very nice.

More...
Ralph's Success Story
close

"Next to me is my Co-Pilot, Elison. This picture was taken on our first flight together, which was almost exactly 5 years after I finished at Dean International. [...] Every Aruban student of Dean International has made it into Tiara Air Aruba. [...] The future looks bright here in Aruba."

Rohaan

Rohaan

The [..] staff will all work diligently to help you finish your certificates as safely and efficiently as possible.

More...
Rohaan's Success Story
close

After receiving very hard times from other flight schools [...], I came to Dean International where Robert Dean personally sat down with me and gave me a financial and chronological look into how much remained to finish my private pilot certificate. Through his hard efforts as an instructor and mentor, I was able to finish my private pilot certificate within one week.

Welcome to Dean International

In over two decades, Dean International has educated over 7,000 pilots from all over the world, including over 1,000 students from India alone. By offering a great training experience, a friendly service staff, an ample variety of aircraft, and by improving constantly, we have become one of the largest, most prestigious FAA 141-approved flight schools in North America. Located in Miami, Florida, USA, our flight school offers an ideal location for year-round, "learn to fly" weather, flight training. Dean International is not only well-equipped to provide services to professional trainees but also caters to General Aviation renters. Visit or contact our headquarters at Kendall-Tamiami Executive Airport located in Miami, FL today to learn more about us, or simply read more about our programs if you are an international student interested in joining our school.

Local Airport Information
TAF FOR KTMB (Issued: Sun, November 23rd 2014 9:03 PM UTC)
TAF
      AMD KTMB 232101Z 2321/2418 15009G19KT P6SM BKN023
      FM232200 15011KT P6SM SCT030 BKN050
      FM240200 13006KT P6SM SCT040
      FM240800 15004KT 4SM BR SKC
     
METAR FOR KTMB (Issued: Sun, November 23rd 2014 8:53 PM UTC):
KTMB 232053Z 14009G16KT 10SM FEW018 SCT048 27/23 A2992 RMK AO2 SLP132 T02720233 56014

This weather information is provided by the National Weather Service.
It is automatically refreshed every three minutes.
TAF FOR KHST (Issued: Sun, November 23rd 2014 7:17 PM UTC)
TAF
      AMD KHST 2319/2422 13012G18KT 9999 SCT015 BKN025 OVC050 QNH2995INS
      BECMG 2323/2324 16009KT 9999 FEW025 SCT050 QNH2998INS
      BECMG 2414/2415 17012G18KT 9999 SCT020 BKN050 OVC150 QNH3002INS TX29/2319Z TN22/2411Z
      AMD 231910
     
METAR FOR KHST (Issued: Sun, November 23rd 2014 9:08 PM UTC):
KHST 232108Z AUTO 12011G16KT 10SM SCT018 27/23 A2992 RMK AO2

This weather information is provided by the National Weather Service.
It is automatically refreshed every three minutes.
TAF FOR KOPF (Issued: Sun, November 23rd 2014 9:03 PM UTC)
TAF
      AMD KOPF 232101Z 2321/2418 15016G24KT P6SM SCT025 OVC035
      FM240200 14009KT P6SM SCT025
      FM241000 17004KT 5SM BR SCT015
      FM241500 17010KT P6SM SCT025
     
METAR FOR KOPF (Issued: Sun, November 23rd 2014 8:53 PM UTC):
KOPF 232053Z 14017KT 10SM BKN025 OVC034 28/23 A2993 RMK AO2 SLP135 T02780228 56015

This weather information is provided by the National Weather Service.
It is automatically refreshed every three minutes.
TAF FOR KMIA (Issued: Sun, November 23rd 2014 9:06 PM UTC)
TAF
      AMD KMIA 232101Z 2321/2418 14013G22KT P6SM SCT025 BKN040
      TEMPO 2321/2401 BKN020
      FM240200 12010KT P6SM SCT040
      FM240900 16004KT 5SM BR SCT025
      FM241500 17010KT P6SM SCT025
     
METAR FOR KMIA (Issued: Sun, November 23rd 2014 9:25 PM UTC):
KMIA 232125Z 14007G17KT 10SM SCT018 SCT043 27/23 A2993 RMK AO2 T02720233

This weather information is provided by the National Weather Service.
It is automatically refreshed every three minutes.
Design by Ariel Llizo
© Dean International Inc. 2012